(193066) = 2000 GW13 = 2002 SL68

Discovered at Socorro on 2000-04-05 by LINEAR.

Orbit

Orbit type: Main Belt

Note: WebGL enabled browser required.

epoch2023-09-13.0
epoch JD2460200.5
perihelion date2023-02-18.87979
perihelion JD2459994.37979
argument of perihelion (°)76.72766
ascending node (°)187.38604
inclination (°)9.35137
eccentricity0.0416944
perihelion distance (AU)2.9688395
Tisserand w.r.t. Jupiter3.2
ΔV w.r.t. Earth (km/sec)11.1
semimajor axis (AU)3.0980092
mean anomaly (°)37.25636
mean daily motion (°/day)0.18075060
aphelion distance (AU)3.227
period (years)5.45
P-vector [x]-0.10421748
P-vector [y]-0.96378357
P-vector [z]-0.24547902
Q-vector [x]0.99433515
Q-vector [y]-0.10615478
Q-vector [z]-0.00536449
absolute magnitude15.64
phase slope0.15
uncertainty0
referenceMPO 778303
observations used376
oppositions16
arc length (days)8507
first opposition used2000
last opposition used2023
residual rms (arc-secs)0.74
perturbers coarse indicatorM-v
perturbers precise indicator003Ek
first observation date used2000-03-11.0
last observation date used2023-06-26.0
computer nameMPCLINUX
JD of orbit computation2456612.755575
perihelion JD uncertainty (days)6.2165E-04
argument of perihelion uncertainty (°)1.1855E-04
ascending node uncertainty (°)2.9182E-05
inclination uncertainty (°)1.0336E-05
eccentricity uncertainty 5.4458E-08
perihelion distance uncertainty (AU)1.7242E-07
Minimum Orbit Intersection Distances (in AU)
for orbit epoch: 2460200.5, reference: E2023-VB5
Mercury2.51525
Venus2.25481
Earth1.97169
Mars1.41636
Jupiter1.79659
Saturn5.87391
Uranus15.3386
Neptune26.6625

Observations

383 total observations over interval: 2000 03 11.46448 – 2023 06 26.687265
These data are available for download (format description).

Date (UT) J2000 RA J2000 Dec Magn Location Ref
2000 03 11.46448 12 39 25.14 -04 59 56.3 19.8   704 – Lincoln Laboratory ETS, New Mexico MPS 15727
2000 03 11.47721 12 39 24.65 -04 59 52.2 19.8   704 – Lincoln Laboratory ETS, New Mexico MPS 15727
2000 03 11.50382 12 39 23.67 -04 59 41.2 20.1   704 – Lincoln Laboratory ETS, New Mexico MPS 15727
2000 04 05.20602 12 22 56.79 -02 03 35.9 19.5   704 – Lincoln Laboratory ETS, New Mexico MPS 12688
2000 04 05.22060 12 22 56.27 -02 03 29.1 20.3   704 – Lincoln Laboratory ETS, New Mexico MPS 12688
2000 04 05.23519 12 22 55.59 -02 03 23.4 20.1   704 – Lincoln Laboratory ETS, New Mexico MPS 12688
2000 04 05.24977 12 22 54.95 -02 03 17.0 19.9   704 – Lincoln Laboratory ETS, New Mexico MPS 12688
2000 04 05.26756 12 22 54.18 -02 03 09.5 20.1   704 – Lincoln Laboratory ETS, New Mexico MPS 12688
2000 04 06.20558 12 22 16.63 -01 56 26.0 19.3   704 – Lincoln Laboratory ETS, New Mexico MPS 12688
2000 04 06.21961 12 22 16.00 -01 56 19.1 19.6   704 – Lincoln Laboratory ETS, New Mexico MPS 12688
2000 04 06.24771 12 22 14.90 -01 56 06.1 19.9   704 – Lincoln Laboratory ETS, New Mexico MPS 12688
2000 04 06.26177 12 22 14.22 -01 56 00.6 19.8   704 – Lincoln Laboratory ETS, New Mexico MPS 12688
2002 09 14.43894 00 23 29.72 +04 00 29.9 19.8 R 644 – Palomar Mountain/NEAT MPS 208854
2002 09 14.44936 00 23 29.32 +04 00 25.9 19.8 R 644 – Palomar Mountain/NEAT MPS 208854
2002 09 14.46108 00 23 28.87 +04 00 21.0 20.0 R 644 – Palomar Mountain/NEAT MPS 208854
2002 09 26.18730 00 15 38.94 +02 37 39.2 19.8 R 644 – Palomar Mountain/NEAT MPS 208854
2002 09 26.24956 00 15 36.32 +02 37 12.1 19.6 R 644 – Palomar Mountain/NEAT MPS 208854
2002 09 26.31642 00 15 33.46 +02 36 43.1 19.3 R 644 – Palomar Mountain/NEAT MPS 208854
2002 09 29.35322 00 13 28.37 +02 14 41.0 19.6 R 608 – Haleakala-AMOS MPS 208854
2002 09 29.36384 00 13 27.97 +02 14 35.7 19.6 R 608 – Haleakala-AMOS MPS 208854
2002 09 29.37448 00 13 27.54 +02 14 31.3 19.5 R 608 – Haleakala-AMOS MPS 208854
2002 09 30.03764 00 13 00.09 +02 09 41.7 20.1 V 557 – Ondrejov MPS 213021
2002 09 30.04047 00 12 59.93 +02 09 40.0   557 – Ondrejov MPS 213021
2002 09 30.04296 00 12 59.89 +02 09 38.9   557 – Ondrejov MPS 213021
2002 09 30.04853 00 12 59.61 +02 09 36.1   557 – Ondrejov MPS 213021
2002 10 04.20817 00 10 11.08 +01 39 37.2 19.5 R 644 – Palomar Mountain/NEAT MPS 208854
2002 10 04.27164 00 10 08.46 +01 39 09.6 19.3 R 644 – Palomar Mountain/NEAT MPS 208854
2002 10 04.33392 00 10 05.89 +01 38 42.9 19.5 R 644 – Palomar Mountain/NEAT MPS 208854
2002 10 06.36437 00 08 45.63 +01 24 18.6 19.6 R 608 – Haleakala-AMOS MPS 208854
2002 10 06.37503 00 08 45.17 +01 24 13.8 20.0 R 608 – Haleakala-AMOS MPS 208854
2002 10 06.38584 00 08 44.74 +01 24 09.2   608 – Haleakala-AMOS MPS 208854
2002 10 31.198960 23 56 20.451 -01 02 19.87 20.65 V 645 – Apache Point-Sloan Digital Sky Survey MPS 208854
2002 10 31.202432 23 56 20.378 -01 02 20.72 21.30   645 – Apache Point-Sloan Digital Sky Survey MPS 208854
2002 11 07.13563 23 54 44.23 -01 28 51.9 20.0 R 695 – Kitt Peak MPS 208789
2002 11 07.22529 23 54 43.23 -01 29 09.7   695 – Kitt Peak MPS 208789
2006 05 05.39331 15 49 38.07 -09 47 52.8 20.0 V 691 – Steward Observatory, Kitt Peak-Spacewatch MPS 208789
2006 05 05.41070 15 49 37.31 -09 47 47.1 20.0 V 691 – Steward Observatory, Kitt Peak-Spacewatch MPS 208789
2006 05 05.42807 15 49 36.57 -09 47 41.7 20.1 V 691 – Steward Observatory, Kitt Peak-Spacewatch MPS 208789
2006 05 23.24805 15 36 23.57 -08 21 23.4 19.9 V 691 – Steward Observatory, Kitt Peak-Spacewatch MPS 208789
2006 05 23.26534 15 36 22.76 -08 21 18.9 20.1 V 691 – Steward Observatory, Kitt Peak-Spacewatch MPS 208789
2006 05 23.28263 15 36 21.97 -08 21 15.0 20.0 V 691 – Steward Observatory, Kitt Peak-Spacewatch MPS 208789
2007 08 22.26680 21 42 03.87 -04 08 02.5 19.8   704 – Lincoln Laboratory ETS, New Mexico MPS 214356
2007 08 22.27938 21 42 03.54 -04 08 08.6 19.7   704 – Lincoln Laboratory ETS, New Mexico MPS 214356
2007 08 22.29197 21 42 03.11 -04 08 13.4 19.9   704 – Lincoln Laboratory ETS, New Mexico MPS 214356
2007 08 22.30452 21 42 02.49 -04 08 17.5 19.9   704 – Lincoln Laboratory ETS, New Mexico MPS 214356
2007 09 05.21660 21 32 55.86 -05 37 21.9 20.4 V 703 – Catalina Sky Survey MPS 214971
2007 09 05.22472 21 32 55.57 -05 37 24.9 20.1 V 703 – Catalina Sky Survey MPS 214971
2007 09 05.23275 21 32 55.17 -05 37 28.6 19.7 V 703 – Catalina Sky Survey MPS 214971
2007 09 05.24094 21 32 54.81 -05 37 29.8 19.5 V 703 – Catalina Sky Survey MPS 214971
2008 09 26.42577 03 23 51.41 +12 07 52.7   691 – Steward Observatory, Kitt Peak-Spacewatch MPS 257731
2008 09 26.44086 03 23 51.25 +12 07 48.7   691 – Steward Observatory, Kitt Peak-Spacewatch MPS 257731
2008 09 26.45594 03 23 51.06 +12 07 45.0   691 – Steward Observatory, Kitt Peak-Spacewatch MPS 257731
2008 11 07.23118 03 00 53.13 +08 28 27.1 19.4 V G96 – Mt. Lemmon Survey MPS 262993
2008 11 07.23830 03 00 52.81 +08 28 25.4 19.5 V G96 – Mt. Lemmon Survey MPS 262993
2008 11 07.24550 03 00 52.48 +08 28 23.0 19.7 V G96 – Mt. Lemmon Survey MPS 262993
2008 11 07.25262 03 00 52.12 +08 28 20.6 19.8 V G96 – Mt. Lemmon Survey MPS 262993
2008 12 01.34549 02 44 02.04 +06 48 25.7 20.0 V G96 – Mt. Lemmon Survey MPS 268700
2008 12 01.35119 02 44 01.82 +06 48 24.6 20.5 V G96 – Mt. Lemmon Survey MPS 268700
2008 12 01.35685 02 44 01.64 +06 48 23.9 20.4 V G96 – Mt. Lemmon Survey MPS 268700
2008 12 01.36259 02 44 01.42 +06 48 22.6 20.8 V G96 – Mt. Lemmon Survey MPS 268700
2011 03 24.26720 13 10 17.10 -05 54 06.8 20.0 V 691 – Steward Observatory, Kitt Peak-Spacewatch MPS 376899
2011 03 24.28493 13 10 16.46 -05 54 00.5 20.1 V 691 – Steward Observatory, Kitt Peak-Spacewatch MPS 376899
2011 03 24.30267 13 10 15.76 -05 53 52.4 20.4 V 691 – Steward Observatory, Kitt Peak-Spacewatch MPS 376899
2011 03 29.22478 13 07 05.02 -05 19 19.2 19.9 V 691 – Steward Observatory, Kitt Peak-Spacewatch MPS 376899
2011 03 29.24248 13 07 04.30 -05 19 11.4 19.8 V 691 – Steward Observatory, Kitt Peak-Spacewatch MPS 376899
2011 03 29.26019 13 07 03.56 -05 19 03.8 20.1 V 691 – Steward Observatory, Kitt Peak-Spacewatch MPS 376899
2011 04 13.17607 12 56 46.51 -03 31 18.5 19.8 V 691 – Steward Observatory, Kitt Peak-Spacewatch MPS 379527
2011 04 13.19376 12 56 45.76 -03 31 11.1 19.9 V 691 – Steward Observatory, Kitt Peak-Spacewatch MPS 379527
2011 04 13.21148 12 56 45.01 -03 31 03.7 20.0 V 691 – Steward Observatory, Kitt Peak-Spacewatch MPS 379527
2011 04 27.15256 12 48 02.42 -02 00 11.7 20.4 V 691 – Steward Observatory, Kitt Peak-Spacewatch MPS 380972
2011 04 27.17112 12 48 01.78 -02 00 05.4 20.3 V 691 – Steward Observatory, Kitt Peak-Spacewatch MPS 380972
2011 04 27.18968 12 48 01.17 -01 59 58.9 20.2 V 691 – Steward Observatory, Kitt Peak-Spacewatch MPS 380972
2011 05 08.15389 12 42 58.36 -01 04 24.1 20.4 V 691 – Steward Observatory, Kitt Peak-Spacewatch MPS 382938
2011 05 08.17510 12 42 57.84 -01 04 18.6 20.0 V 691 – Steward Observatory, Kitt Peak-Spacewatch MPS 382938
2011 05 08.19631 12 42 57.37 -01 04 13.3 20.5 V 691 – Steward Observatory, Kitt Peak-Spacewatch MPS 382938
2011 05 10.15676 12 42 16.65 -00 56 10.6   691 – Steward Observatory, Kitt Peak-Spacewatch MPS 382938
2011 05 10.17273 12 42 16.36 -00 56 06.2   691 – Steward Observatory, Kitt Peak-Spacewatch MPS 382938
2011 05 10.18869 12 42 16.06 -00 56 02.1   691 – Steward Observatory, Kitt Peak-Spacewatch MPS 382938
2011 06 25.19294 12 48 02.52 -00 37 33.9 21.0 V G96 – Mt. Lemmon Survey MPS 386216
2011 06 25.19992 12 48 02.73 -00 37 34.9 21.1 V G96 – Mt. Lemmon Survey MPS 386216
2011 06 25.20689 12 48 02.95 -00 37 36.4 21.3 V G96 – Mt. Lemmon Survey MPS 386216
2011 06 25.21392 12 48 03.16 -00 37 37.6 21.0 V G96 – Mt. Lemmon Survey MPS 386216
2012 06 14.50689 19 18 49.229 -08 26 36.30 19.7 r F51 – Pan-STARRS 1, Haleakala MPS 427716
2012 06 14.51704 19 18 48.853 -08 26 35.65 19.7 r F51 – Pan-STARRS 1, Haleakala MPS 427716
2012 06 14.52835 19 18 48.435 -08 26 34.99 19.6 i F51 – Pan-STARRS 1, Haleakala MPS 427716
2012 06 14.53963 19 18 48.018 -08 26 34.35 19.6 i F51 – Pan-STARRS 1, Haleakala MPS 427716
2013 09 24.50871 00 47 35.639 +04 40 35.02 19.8 r F51 – Pan-STARRS 1, Haleakala MPS 478471
